Location: Dammartin
(48.9032°N, 1.6195°E)
Time: 18:39:55
(UTC+00:00)

BlueWalker 3 - Pass Details

Date: 22 April 2024
Orbit: 482 x 494 km, 53.2° (Epoch: 22 May)

Event Time Altitude Azimuth Distance (km) Brightness Sun altitude
Rises 20:32:58 0° 264° (W) 2,571 6.2 -14.5°
Reaches altitude 10° 20:35:11 10° 270° (W) 1,693 5.3 -14.8°
Maximum altitude 20:38:55 51° 347° (NNW) 635 2.7 -15.3°
Drops below altitude 10° 20:42:41 10° 64° (ENE) 1,702 4.4 -15.7°
Enters shadow 20:43:12 - 66° (ENE) 1,905 4.6 -15.8°
